Regional Weather Roundup
Issued by NWS

Home | Current Version | Previous Version | Graphics & Text | Print | Product List | Glossary On
Versions: 1 2 3 4 5 6 7 8 9 10 11 12 13 14 15 16 17 18 19 20 21 22 23 24 25 26 27 28 29 30 31 32 33 34 35 36 37 38 39 40 41 42 43 44 45 46 47 48 49 50
351
ASUS45 KTFX 220710
RWRMT
MONTANA REGIONAL WEATHER ROUNDUP
NATIONAL WEATHER SERVICE GREAT FALLS MT
100 AM MDT TUE MAY 22 2018

NOTE: "FAIR" INDICATES FEW OR NO CLOUDS BELOW 12000 FEET WITH NO
SIGNIFICANT WEATHER AND/OR OBSTRUCTIONS TO VISIBILITY.

MTZ001>007-043-220800-
WEST OF THE DIVIDE

CITY           SKY/WX    TMP DP  RH WIND       PRES   REMARKS
KALISPELL      FAIR      49  46  90 CALM      29.96R
MISSOULA       CLOUDY    55  49  80 NW3       29.98S
BUTTE          CLOUDY    52  46  80 SE5       30.06R
MULLAN PASS    FAIR      50  42  74 NW6       30.07S
ANACONDA         N/A     50  46  87 CALM      30.03S
DEER LODGE       N/A     52  52 100 CALM      30.05S
HAMILTON         N/A     55  48  76 MISG      29.99R
PLAINS           N/A     56  51  83 CALM      29.98R
RONAN            N/A     55  50  82 CALM      29.97S
$$

MTZ008-052>055-220800-
SOUTHWEST MONTANA

CITY           SKY/WX    TMP DP  RH WIND       PRES   REMARKS
BOZEMAN        FAIR      50  47  89 CALM      30.02R
DILLON         FAIR      47  44  90 E7        30.03R
ENNIS          CLOUDY    48  45  87 CALM      30.07S
W YELLOWSTONE  LGT RAIN  43  43 100 SW3       30.08R
TWIN BRIDGES     N/A     51  44  77 CALM      30.01R
$$

MTZ009-010-012-014-046-048-049-054-220800-
EAST SLOPES AND CENTRAL MONTANA

CITY           SKY/WX    TMP DP  RH WIND       PRES   REMARKS
CUT BANK       FAIR      51  45  79 N3        29.97R
GREAT FALLS    CLOUDY    59  50  72 SW8       29.97S
MALMSTROM AFB  MOCLDY    59  52  76 SW6       29.95S
HELENA         FAIR      55  51  86 CALM      29.98S
AUGUSTA        MOCLDY    55  46  71 NW10      29.99S
BOWMANS CRNR   FAIR      51  45  78 W8        29.97S
CHOTEAU          N/A     57  50  77 S6        29.99S
POWER          MOCLDY    53  48  82 W7        29.95S
RAYNESFORD     CLOUDY    59  47  63 CALM      29.98R
ULM            MOCLDY    56  52  85 SW3       29.96S
WHITE SULPHUR    N/A     50  48  93 S3        30.02
$$

MTZ011-013-016-021-045-047-050-051-220800-
NORTH CENTRAL MONTANA

CITY           SKY/WX    TMP DP  RH WIND       PRES   REMARKS
HAVRE          FAIR      60  54  80 W3        29.89R
LEWISTOWN      MOCLDY    51  50  96 S3        29.98S
N BAR RANCH    FAIR      50  46  87 W5        30.01S
CHINOOK          N/A     61  55  82 CALM      29.88R
DENTON         CLOUDY    57  51  82 S7        29.92S
GEYSER         MOCLDY    57  47  69 SW10      29.97R
GRASS RANGE    FAIR      55  49  81 W10       29.93S
JUDITH GAP     LGT RAIN  53  49  89 SW6       30.00S
ROY            CLOUDY    63  48  57 NW9       29.92S
STANFORD       CLOUDY    57  45  64 W5        29.98S
WINIFRED       MOCLDY    60  49  67 W7        29.94S
$$

MTZ017>020-022>027-061-062-220800-
NORTHEAST MONTANA

CITY           SKY/WX    TMP DP  RH WIND       PRES   REMARKS
GLASGOW        CLOUDY    64  50  60 NE8       29.86R
GLENDIVE       FAIR      58  50  75 CALM      29.89S
JORDAN           N/A     63  55  75 W18       29.92R
MALTA          CLOUDY    63  50  63 CALM      29.86R
SIDNEY         FAIR      54  47  77 CALM      29.88R
WOLF POINT     FAIR      60  52  74 NE3       29.86S
PLENTYWOOD       N/A     63  45  51 CALM      29.87S
POPLAR           N/A     57  52  82 CALM      29.86S
SCOBEY           N/A     55  41  59 S1        29.86F
$$

MTZ028>42-056>058-220800-
SOUTHCENTRAL AND SOUTHEAST MONTANA

CITY           SKY/WX    TMP DP  RH WIND       PRES   REMARKS
BAKER          FAIR      53  52  96 SE8       29.91F
BILLINGS       FAIR      60  51  72 W10       29.96S
LIVINGSTON     FAIR      48  46  93 SW5       30.02S
MILES CITY     FAIR      61  57  87 NW10      29.89R
BIG TIMBER     MOCLDY    52  50  93 W8        30.02S
EKALAKA          N/A     56  49  77 SE8       29.92R
FORSYTH          N/A     63  57  82 CALM      29.89F
LAUREL           N/A     55  52  88 W7        29.97S
$$

REGIONAL REPORTS...DAKOTAS

CITY           SKY/WX    TMP DP  RH WIND       PRES   REMARKS
WILLISTON      FAIR      59  47  64 S3        29.87S
MINOT          FAIR      62  50  64 S8        29.89S
DICKINSON      FAIR      52  32  46 S8        29.90S
BEACH          FAIR      54  52  94 S3        29.94S
CROSBY         FAIR      55  39  54 S13       29.86S
TIOGA          FAIR      55  39  54 S8        29.90S
WATFORD CITY   FAIR      54  39  58 CALM      29.88S
BISMARCK       FAIR      54  50  86 E3        29.94R
GRAND FORKS    FAIR      54  53  97 S7        29.94S
FARGO          FAIR      57  53  86 S8        29.97S
BUFFALO SD       N/A     58  48  69 SE7       29.87R
RAPID CITY     FAIR      53  50  89 CALM      29.93R
$$

REGIONAL REPORTS...WYOMING/IDAHO/WASHINGTON

CITY           SKY/WX    TMP DP  RH WIND       PRES   REMARKS
GILLETTE       FAIR      58  46  64 SW8       29.95S
SHERIDAN       FAIR      54  50  86 W7        29.98R
BUFFALO WY     FAIR      54  47  77 NW12      30.00R
CODY           FAIR      52  45  77 N5        30.04S
YELLOWSTONE LA   N/A     35  31  85 CALM      30.15S
IDAHO FALLS    FAIR      56  47  71 E5        29.97R
SALMON         MOCLDY    55  48  77 CALM      29.97S
BOISE          FAIR      61  51  70 SW7       29.87R
SPOKANE        FAIR      60  52  74 SW6       29.93S
$$

REGIONAL REPORTS...ALBERTA

CITY           SKY/WX    TMP DP  RH WIND       PRES   REMARKS
CALGARY        PTCLDY    57  41  54 N3        29.97R
CARDSTON         N/A     54  43  66 S3          N/A
EDMONTON       CLEAR     52  37  58 W5        29.88R
FORT MCMURRAY  CLEAR     61  45  55 S5        29.80R
HIGH LEVEL     MOCLDY    63  48  59 S5        29.70S
LETHBRIDGE     CLEAR     54  41  62 CALM      29.93R
LLOYDMINSTER   PTCLDY    55  43  62 NW5       29.87R
MEDICINE HAT   CLEAR     54  43  66 SW2       29.90R
MILK RIVER       N/A     46  43  87 NW7         N/A
ONEFOUR          N/A     57  43  58 N14         N/A
PEACE RIVER    PTCLDY    57  37  47 W7        29.85S
PINCHER CREEK  CLEAR     48  39  71 W9        29.97R
WATERTON GATE    N/A     50  37  62 S9          N/A
$$

REGIONAL REPORTS...SASKATCHEWAN

CITY           SKY/WX    TMP DP  RH WIND       PRES   REMARKS
CORONACH         N/A     57  46  67 SE6         N/A
CYPRESS HILLS    N/A     57  39  51 NE3         N/A
ESTEVAN        PTCLDY    57  39  51 S9        29.85R
PRINCE ALBERT  MOCLDY    46  43  87 CALM      29.83R
REGINA         LGT RAIN  64  43  45 NW10      29.82R
ROCKGLEN         N/A     57  45  62 SW5         N/A
SASKATOON      PTCLDY    55  43  62 NE7       29.82R
SWIFT CURRENT  CLOUDY    59  46  63 NE8       29.85S
VAL MARIE        N/A     54  46  76 SW6         N/A
$$




USA.gov is the U.S. government's official web portal to all federal, state and local government web resources and services.